NOAA 17 DEB

Satellite information

Favourite Embed

Satellite Type and Status

DEBRISIN ORBIT

Key statistics

Satellite NOAA 17 DEB at a glance.

Uptime

8474

Days in orbit

Revolutions

≈ 14.3

Per day

Orbit

SSO

Sun Synchronous Orbit

Inclination

98.8

Latest

Satellite identification and parameters

Extended collection of information and parameters for NOAA 17 DEB.

Object identification

Identified? True

Debris? True

Object name: NOAA 17 DEB

International designator: 2002-032AN

Object number (NORAD): 48705

Object ID (CCSDS): 48705

Country: UNITED STATES OF AMERICA (US)

Current information (Y/N): Y

RCS size: SMALL

Orbital parameters

Period: 100.526 minutes

Inclination: 98.7843 deg

SMA: 7161.63 km

Apoapsis: 792.112 km

Periapsis: 774.878 km

RAAN: 207.2074 deg

Eccentricy: 0.00120325

Argument of periapsis: 81.6941 deg

Mean anomaly: 278.5606 deg

Mean motion: 14.32468047 rev/day

Mean motion (dot): 0.00003995 rev/day2

B* drag term: 0.0014900887 1/REarth

Two-line elements (TLE)

Creation date: Sept. 3, 2025, 10:15 a.m.

Reference frame: TEME

Reference center: EARTH

Epoch: Sept. 3, 2025, 4:05 a.m. UTC

TLE line 0: 0 NOAA 17 DEB

TLE line 1: 1 48705U 02032AN 25246.17052246 .00003995 00000-0 14901-2 0 9990

TLE line 2: 2 48705 98.7843 207.2074 0012033 81.6941 278.5606 14.32468047233422

Live tracking on map

Real-time ground track for satellite NOAA 17 DEB.

In-orbit conjunctions

A list of the most updated potential collisions computed for object NOAA 17 DEB.

Target Orbit TCA Probability of collision Miss distance Type
SL-3 R/B LEO 2024-11-18 03:33:21 0.0001346905 572.0 (m) ROCKET BODY
CZ-6A DEB LEO 2024-10-31 21:46:57 0.0002262478 550.0 (m) DEBRIS
SL-16 DEB LEO 2024-07-06 22:15:19 0.0001148659 235.0 (m) DEBRIS

Associated space launch

NOAA M carried weather imagers and microwave and infrared sounders, as well as a SARSAT search-and-rescue package. It had an on-orbit mass of 1475 kg.

NOAA 17 DEB was lifted into orbit during the mission ‘Titan II SLV | NOAA 17’, on board a Titan II SLV space rocket.

The launch took place on June 24, 2002, 6:23 p.m. from Space Launch Complex 4W.

For more information about the launch, click the button.

Launch to space Titan II SLV | NOAA 17
Titan II SLV | NOAA 17

Agency: N/A

Status: Launch Successful

Launch date: June 24, 2002, 6:23 p.m. UTC

Rocket: Titan II SLV

Launch pad: Space Launch Complex 4W

Location: Vandenberg SFB, CA, USA

...

Latest news about this satellite

There are no fresh news available about this satellite. Check back as we update our databases every day.


Newsletter sign-up

Weekly statistics, charts and insights to help you stay on top of the space industry.